Preston, Minnesota, United States (55965)
Lat: 43.67N, Lon: 92.08W
Wx Zone: MNZ095
Local Info
Past Weather Observations for Today

NOTE: This archive is for the closest National Weather Service station to Preston. Information may differ from the station used for current weather conditions.

Click here for Long-term Archive

Time Weather Temperature Dewpoint Humidity Pressure Winds Precip Visibility
21:35
Overcast
32°F / 0°C 32°F / 0°C 100% 29.59 in
(1002 mb)
Calm - 10SM
21:15
Overcast
32°F / 0°C 32°F / 0°C 100% 29.59 in
(1002 mb)
E 3.5 mph
(E 6 kph)
- 7SM
20:55
Mostly Cloudy
32°F / 0°C 30°F / -1°C 93% 29.59 in
(1002 mb)
Calm - 7SM
20:35
Mostly Cloudy
34°F / 1°C 32°F / 0°C 93% 29.59 in
(1002 mb)
E 3.5 mph
(E 6 kph)
- 10SM
20:15
Overcast
34°F / 1°C 32°F / 0°C 93% 29.59 in
(1002 mb)
Calm - 10SM
19:55
Overcast
34°F / 1°C 32°F / 0°C 93% 29.59 in
(1002 mb)
Calm - 10SM
19:35
Overcast
34°F / 1°C 32°F / 0°C 93% 29.59 in
(1002 mb)
S 3.5 mph
(S 6 kph)
- 10SM
19:15
Mostly Cloudy
34°F / 1°C 32°F / 0°C 93% 29.59 in
(1002 mb)
Calm - 10SM
18:55
Partly Cloudy
34°F / 1°C 32°F / 0°C 93% 29.59 in
(1002 mb)
SE 3.5 mph
(SE 6 kph)
- 10SM
18:35
Overcast
34°F / 1°C 32°F / 0°C 93% 29.59 in
(1002 mb)
SSE 3.5 mph
(SSE 6 kph)
- 10SM
18:15
Overcast
34°F / 1°C 32°F / 0°C 93% 29.59 in
(1002 mb)
Calm - 10SM
17:55
Mostly Cloudy
34°F / 1°C 32°F / 0°C 93% 29.59 in
(1002 mb)
Calm - 10SM
17:35
Mostly Cloudy
34°F / 1°C 32°F / 0°C 93% 29.59 in
(1002 mb)
Calm - 10SM
17:15
Mostly Cloudy
34°F / 1°C 32°F / 0°C 93% 29.59 in
(1002 mb)
S 3.5 mph
(S 6 kph)
- 10SM
16:55
Mostly Cloudy
36°F / 2°C 32°F / 0°C 87% 29.59 in
(1002 mb)
S 3.5 mph
(S 6 kph)
- 10SM
16:35
Mostly Cloudy
36°F / 2°C 32°F / 0°C 87% 29.59 in
(1002 mb)
Calm - 10SM
16:15
Partly Cloudy
36°F / 2°C 32°F / 0°C 87% 29.59 in
(1002 mb)
SW 3.5 mph
(SW 6 kph)
- 10SM
15:55
Clear
36°F / 2°C 32°F / 0°C 87% 29.59 in
(1002 mb)
SSE 3.5 mph
(SSE 6 kph)
- 10SM
15:35
Clear
34°F / 1°C 32°F / 0°C 93% 29.59 in
(1002 mb)
Calm - 10SM
15:15
Clear
36°F / 2°C 32°F / 0°C 87% 29.59 in
(1002 mb)
NW 3.5 mph
(NW 6 kph)
- 10SM
14:55
Clear
36°F / 2°C 32°F / 0°C 87% 29.62 in
(1003 mb)
WNW 4.6 mph
(WNW 7 kph)
- 10SM
14:35
Clear
36°F / 2°C 32°F / 0°C 87% 29.62 in
(1003 mb)
SSW 6.9 mph
(SSW 11 kph)
- 10SM
14:15
Clear
36°F / 2°C 30°F / -1°C 81% 29.62 in
(1003 mb)
SSW 8.1 mph
(SSW 13 kph)
- 10SM
13:55
Clear
36°F / 2°C 30°F / -1°C 81% 29.62 in
(1003 mb)
W 10.4 mph
(W 17 kph)
- 10SM
13:35
Clear
36°F / 2°C 30°F / -1°C 81% 29.62 in
(1003 mb)
W 10.4 mph
(W 17 kph)
- 10SM
13:15
Clear
36°F / 2°C 30°F / -1°C 81% 29.62 in
(1003 mb)
W 10.4 mph
(W 17 kph)
- 10SM
12:55
Clear
36°F / 2°C 30°F / -1°C 81% 29.65 in
(1004 mb)
SSW 8.1 mph
(SSW 13 kph)
- 10SM
12:35
Clear
34°F / 1°C 30°F / -1°C 87% 29.65 in
(1004 mb)
SSW 9.2 mph
(SSW 15 kph)
- 10SM
12:15
Clear
34°F / 1°C 30°F / -1°C 87% 29.65 in
(1004 mb)
W 8.1 mph
(W 13 kph)
- 10SM
11:55
Clear
34°F / 1°C 30°F / -1°C 87% 29.68 in
(1005 mb)
W 6.9 mph
(W 11 kph)
- 10SM
11:35
Partly Cloudy
32°F / 0°C 30°F / -1°C 93% 29.68 in
(1005 mb)
W 8.1 mph
(W 13 kph)
- 10SM
11:15
Clear
32°F / 0°C 28°F / -2°C 87% 29.68 in
(1005 mb)
W 8.1 mph
(W 13 kph)
- 10SM
10:55
Clear
32°F / 0°C 28°F / -2°C 87% 29.68 in
(1005 mb)
W 6.9 mph
(W 11 kph)
- 10SM
10:35
Clear
30°F / -1°C 28°F / -2°C 93% 29.71 in
(1006 mb)
SSW 6.9 mph
(SSW 11 kph)
- 10SM
10:15
Clear
30°F / -1°C 28°F / -2°C 93% 29.71 in
(1006 mb)
W 8.1 mph
(W 13 kph)
- 10SM
09:55
Partly Cloudy
28°F / -2°C 27°F / -3°C 93% 29.71 in
(1006 mb)
W 10.4 mph
(W 17 kph)
- 10SM
09:35
Partly Cloudy
28°F / -2°C 27°F / -3°C 93% 29.71 in
(1006 mb)
W 9.2 mph
(W 15 kph)
- 10SM
09:15
Clear
28°F / -2°C 27°F / -3°C 93% 29.71 in
(1006 mb)
W 5.8 mph
(W 9 kph)
- 7SM
08:55
Clear
27°F / -3°C 27°F / -3°C 100% 29.71 in
(1006 mb)
W 6.9 mph
(W 11 kph)
- 7SM
08:35
Partly Cloudy
27°F / -3°C 25°F / -4°C 93% 29.71 in
(1006 mb)
WNW 6.9 mph
(WNW 11 kph)
- 7SM
08:15
Partly Cloudy
27°F / -3°C 25°F / -4°C 93% 29.71 in
(1006 mb)
WNW 9.2 mph
(WNW 15 kph)
- 7SM
07:55
Clear
27°F / -3°C 25°F / -4°C 93% 29.74 in
(1007 mb)
W 11.5 mph
(W 19 kph)
- 7SM
07:35
Clear
27°F / -3°C 25°F / -4°C 93% 29.74 in
(1007 mb)
W 11.5 mph
(W 19 kph)
- 7SM
07:15
Clear
27°F / -3°C 27°F / -3°C 100% 29.74 in
(1007 mb)
W 10.4 mph
(W 17 kph)
- 10SM
06:55
Clear
28°F / -2°C 27°F / -3°C 93% 29.74 in
(1007 mb)
W 10.4 mph
(W 17 kph)
- 10SM
06:35
Clear
28°F / -2°C 27°F / -3°C 93% 29.74 in
(1007 mb)
W 10.4 mph
(W 17 kph)
- 10SM
06:15
Clear
28°F / -2°C 28°F / -2°C 100% 29.74 in
(1007 mb)
W 8.1 mph
(W 13 kph)
- 10SM
05:55
Partly Cloudy
28°F / -2°C 28°F / -2°C 100% 29.74 in
(1007 mb)
W 8.1 mph
(W 13 kph)
- 7SM
05:35
Overcast
Fog And Mist
30°F / -1°C 28°F / -2°C 93% 29.74 in
(1007 mb)
W 8.1 mph
(W 13 kph)
- 5SM
05:15
Overcast
Fog And Mist
30°F / -1°C 30°F / -1°C 100% 29.74 in
(1007 mb)
NW 8.1 mph
(NW 13 kph)
- 4SM
04:55
Overcast
Fog And Mist
30°F / -1°C 30°F / -1°C 100% 29.74 in
(1007 mb)
NW 8.1 mph
(NW 13 kph)
- 3SM
04:35
Overcast
Fog And Mist
30°F / -1°C 30°F / -1°C 100% 29.74 in
(1007 mb)
NW 12.7 mph
(NW 20 kph)
- 2 1/2SM
04:15
Overcast
Fog And Mist
30°F / -1°C 30°F / -1°C 100% 29.77 in
(1008 mb)
NW 11.5 mph
(NW 19 kph)
- 1 3/4SM
03:55
Overcast
Fog And Mist
30°F / -1°C 28°F / -2°C 93% 29.77 in
(1008 mb)
WNW 10.4 mph
(WNW 17 kph)
- 3/4SM
03:35
Overcast
Fog And Mist
28°F / -2°C 28°F / -2°C 100% 29.77 in
(1008 mb)
WNW 8.1 mph
(WNW 13 kph)
- 3/4SM
03:15
Overcast
Fog And Mist
28°F / -2°C 28°F / -2°C 100% 29.77 in
(1008 mb)
WNW 12.7 mph
(WNW 20 kph)
- 3/4SM
02:55
Overcast
Fog And Mist
28°F / -2°C 28°F / -2°C 100% 29.77 in
(1008 mb)
WNW 12.7 mph
(WNW 20 kph)
- 5SM
02:35
Overcast
Fog And Mist
28°F / -2°C 28°F / -2°C 100% 29.77 in
(1008 mb)
WNW 12.7 mph
(WNW 20 kph)
- 1SM
02:15
Overcast
Fog And Mist
28°F / -2°C 27°F / -3°C 93% 29.77 in
(1008 mb)
NW 10.4 mph
(NW 17 kph)
- 1 1/4SM
01:55
Partly Cloudy
27°F / -3°C 27°F / -3°C 100% 29.77 in
(1008 mb)
WNW 10.4 mph
(WNW 17 kph)
- 7SM
01:35
Clear
27°F / -3°C 25°F / -4°C 93% 29.77 in
(1008 mb)
NW 9.2 mph
(NW 15 kph)
- 7SM
01:15
Clear
28°F / -2°C 27°F / -3°C 93% 29.77 in
(1008 mb)
NW 8.1 mph
(NW 13 kph)
- 10SM
00:55
Clear
28°F / -2°C 27°F / -3°C 93% 29.77 in
(1008 mb)
NW 8.1 mph
(NW 13 kph)
- 10SM
00:35
Partly Cloudy
30°F / -1°C 28°F / -2°C 93% 29.8 in
(1009 mb)
NW 12.7 mph
(NW 20 kph)
- 10SM
00:15
Mostly Cloudy
30°F / -1°C 28°F / -2°C 93% 29.8 in
(1009 mb)
NW 11.5 mph
(NW 19 kph)
- 10SM
Time Weather Temperature Dewpoint Humidity Pressure Winds Precip Visibility


Weather for websites

WeatherForYou.com, LLC is not responsible for any damages or problems caused by this service. Current weather conditions are obtained from the closest station including government and personal stations which may have varying degrees of accuracy. Weather forecasts are derived from the NOAA NDFD. Like all things, this site belongs to Jesus Christ... He just trusts me to maintain it. If you have any questions or comments email webmaster@weatherforyou.com

Copyright © 2015, WeatherForYou.com LLC. All rights reserved.